Regional Weather Roundup
Issued by NWS

Home | Current Version | Previous Version | Text Only | Print | Product List | Glossary Off
Versions: 1 2 3 4 5 6 7 8 9 10 11 12 13 14 15 16 17 18 19 20 21 22 23 24 25 26 27 28 29 30 31 32 33 34 35 36 37 38 39 40 41 42 43 44 45 46 47 48 49 50

171
ASUS45 KBOU 220310
RWRCO

WEATHER ROUNDUP FOR COLORADO
NATIONAL WEATHER SERVICE DENVER/BOULDER CO
800 PM MST SUN JAN 21 2018

NOTE: "FAIR" INDICATES FEW OR NO CLOUDS BELOW 12000 FEET WITH NO
SIGNIFICANT WEATHER AND/OR OBSTRUCTIONS TO VISIBILITY.

COZ001>005-013-030-031-220400-
...NORTHWEST COLORADO...

CITY           SKY/WX    TMP DP  RH WIND       PRES   REMARKS
CRAIG          FAIR      15   9  76 W9        30.11R WCI   3
HAYDEN         CLOUDY   N/A N/A N/A W8        30.09R
MEEKER         CLOUDY    21  15  78 NW7       30.10R WCI  12
RABBIT EARS PA FLURRIES   5   1  85 W10G17    29.89S WCI -10
STEAMBOAT SPGS MOCLDY    16   9  73 W3        30.04R
WALDEN         MOCLDY    10   5  79 N9        29.98R WCI  -2
$$

COZ006>008-011-220400-
...WEST CENTRAL VALLEYS...

CITY           SKY/WX    TMP DP  RH WIND       PRES   REMARKS
GRAND JUNCTION FAIR      18  12  77 CALM      30.15R
MONTROSE       FAIR      23  14  68 NW5       30.14R WCI  17
EAGLE          CLOUDY    21  15  78 CALM      30.06R
RIFLE          FAIR      26  16  65 W10       30.11R WCI  16
DELTA          FAIR      31  14  50 W9        30.13R WCI  22
NUCLA          FAIR      23  12  63 NW3       30.16R
$$

COZ017>023-064>068-220400-
...SOUTHWEST COLORADO...

CITY           SKY/WX    TMP DP  RH WIND       PRES   REMARKS
DURANGO        FAIR      21  12  68 W8G18     29.96R WCI  11
CORTEZ         FAIR      23  14  68 NW6       30.11R WCI  16
PAGOSA SPRINGS CLOUDY    22  22  97 CALM      29.93R
TELLURIDE      CLOUDY    13   8  81 W17G24    30.01R HAZE    WCI  -4
WOLF CREEK PAS FAIR       1   0  92 NW5G16    29.87R WCI  -8
$$

COZ009-010-012-014-032>034-037-058>063-220400-
...CENTRAL COLORADO...

CITY           SKY/WX    TMP DP  RH WIND       PRES   REMARKS
ASPEN          CLOUDY    17   9  70 N8G14     29.98R WCI   7
BUENA VISTA    FAIR      18   6  59 NW17G24   29.87S WCI   3
COPPER MTN     NOT AVBL
BERTHOUD PASS  HVY SNOW  -4 -15  59 N8        29.74R VSB<1/4 WCI -19
COTTONWOOD PAS   N/A     18  10  73 NW8       29.82S WCI   7
GUNNISON       FAIR      12   5  73 NW7       29.97R WCI   1
KREMMLING      LGT SNOW  21  18  86 CALM      30.01R
LEADVILLE      LGT SNOW   7   3  84 N10       29.85R FOG     WCI  -8
MONARCH PASS   LGT SNOW   1  -2  85 W31G38    29.88S VSB 1   WCI -24
SALIDA         FAIR      16  11  79 CALM      29.96R
SUNLIGHT       CLOUDY   N/A N/A N/A MISG      29.97R
WILKERSON PASS CLOUDY     5   0  78 N15G26    29.77S WCI -13
$$

COZ069>075-220400-
...SAN LUIS VALLEY/SANGRE DE CRISTO MOUNTAINS...

CITY           SKY/WX    TMP DP  RH WIND       PRES   REMARKS
ALAMOSA        FAIR      20   5  52 NW13      29.88R WCI   7
DEL NORTE      CLOUDY    20   2  46 W8G17     29.91R WCI  10
LA VETA PASS   LGT SNOW  12   9  85 W9G18       N/A  WCI   0
SAGUACHE       CLOUDY    19   9  63 NW15G23   29.90R WCI   5
$$

COZ035-036-038>040-220400-
...NORTHERN COLORADO FRONT RANGE...

CITY           SKY/WX    TMP DP  RH WIND       PRES   REMARKS
DENVER INTL AP CLOUDY    23  15  71 N22       29.94S WCI   8
DMNS CITY PARK NOT AVBL
AURORA         CLOUDY    22  16  79 N15       29.94R WCI   8
FRONT RANGE AP CLOUDY    25  21  86 NW21      29.94R WCI  10
ERIE MUNI ARPT CLOUDY    25  16  69 N8        30.02R WCI  16
BOULDER MUN AP CLOUDY    27  23  86 CALM      29.95S
CENTENNIAL     CLOUDY    22  17  81 NW9       29.93R WCI  12
BROOMFIELD     CLOUDY    25  19  80 N7        29.95R WCI  17
FORT COLLINS   CLOUDY    25  19  78 N15       29.97S WCI  13
LONGMONT       NOT AVBL
$$

COZ041-046-047-076>085-087-088-220400-
...PIKES PEAK/PALMER DIVIDE AND SOUTHERN FOOTHILLS...

CITY           SKY/WX    TMP DP  RH WIND       PRES   REMARKS
COLO. SPRINGS  LGT SNOW  22  15  75 N23G33    29.89R FOG     WCI   6
A. F. ACADEMY  LGT SNOW  20  15  82 NW20G28   29.86R WCI   4
SCHRIEVER AFB  FLURRIES  21  14  73 N17G26    29.88R WCI   7
CHEYENNE MTN   MOCLDY    19  11  69 NW9       29.80R WCI   9
ELLICOTT         N/A    N/A N/A N/A N23G32      N/A
FALCON         LGT SNOW  19  13  78 N18G33    29.86R WCI   3
FORT CARSON    CLOUDY    24  14  65 N17G25    29.89R WCI  10
LIMON          LGT SNOW  21  20  96 NW32G44   29.84S VSB 3/4 WCI   2
MONUMENT HILL  CLOUDY    16  14  93 N23G31    29.87S FOG     WCI  -2
CANON CITY     FAIR      27  16  63 W12       29.89R WCI  16
WALSENBURG     MOCLDY    23  18  80 CALM      29.90S
TRINIDAD       CLOUDY    24  18  77 VRB3      29.91R
$$

COZ042>045-048>051-090-091-220400-
...NORTHEAST COLORADO...

CITY           SKY/WX    TMP DP  RH WIND       PRES   REMARKS
GREELEY ARPT   NOT AVBL
AKRON          FOG       24  23  96 NW26      29.86F VSB 3/4 WCI   8
BURLINGTON     FOG       26  24  92 NW32G45   29.76S VSB 1/2 WCI   9
WRAY           CLOUDY    28  28 100 N28G37    29.81S WCI  13
YUMA           LGT SNOW  25  23  93 NW24G31   29.84R WCI   9
STERLING       LGT SNOW  28  27  93 N24       29.89S WCI  14
HOLYOKE        CLOUDY    30  27  86 N28G39    29.82F WCI  16
FORT MORGAN    LGT SNOW  26  21  81 NW26G32   29.93S WCI  10
$$

COZ086-089-092>099-220400-
...SOUTHEAST COLORADO...

CITY           SKY/WX    TMP DP  RH WIND       PRES   REMARKS
PUEBLO         FAIR      30  17  58 N23G32    29.91R WCI  17
LA JUNTA       CLOUDY    30  20  66 NW20G26   29.90S WCI  17
LAMAR          CLOUDY    29  23  78 NW24      29.83R WCI  15
SPRINGFIELD      N/A     25  24  96 NW28G40   29.80R WCI   9
$$




USA.gov is the U.S. government's official web portal to all federal, state and local government web resources and services.